loading
|
Showing default

VSP ROSE, 59124

Orbit data source: Space-Track

VSP ROSE, 59124 is a payload satellite owned by Aerospacelab (BE) in SSO that was launched on Mon, 04 Mar 2024 UTC via an FALCON 9 launch vehicle from the Air Force Western Test Range (AFWTR). Payloads include a variety of satellites, spacecraft, and rockets equipped with specific instruments for various scientific and technological missions. These include communications satellites like Starlink; space stations such as the ISS; scientific satellites like the Hubble; Earth observation satellites from companies like Planet Labs, Umbra, and HawkEye 360; GPS; miniature CubeSats for education and research; and military/defense satellites.

Loading next visibility...
Loading greatness...
VSP ROSE details
Identifier
59124, 2024-043AC
Orbit
SSO
Last TLE update7 hours ago
Origin
Flag of BEAerospacelab (BE / BEL)
ManufacturerAerospacelab
Mission statusOperational
MissionCommercial Communications
Bus & MotorAEROSP, Unknown motor
Mass~200 kg wet, ~200 kg dry
Launch date (UTC)
2024-03-04 (7 months ago)
Launch vehicle
FALCON 9
Launch site
Air Force Western Test Range (AFWTR)
Object type
Payload
Rocket body
Debris
Radar Cross SectionMedium (>0.1 m² and <1 m²)

Expand to show TLE details & history

TLE from 7 hours ago
0 VSP ROSE
1 59124U 24043AC  24261.62410813  .00027863  00000-0  13008-2 0  9994
2 59124  97.4853  24.3863 0012112 331.3811  28.6758 15.19727198 29830
Epoch: 2024-09-17T14:58Z
Definitive object data (Epoch: 2024-09-17T14:58:42.942Z)
Latitude0.00002°
Longitude162.67128°
Altitude502.437 km
Speed7.617 km/s
True Right ascension01h 37m 32s
True Declination0° 00' 00"
Sunlit
Object was in full shadow at TLE epoch
Predictive object data (real-time)
Latitude51.32124°
Longitude153.5477°
Altitude513.682 km
Speed7.613 km/s
Apparent Right ascension01h 43m 13s
Apparent Declination8° 03' 52"
Sunlit
Object is in full shadow
Predictive observer data (real-time)
Local Sidereal Time14:20:19
Azimuth12.256° NNE
Elevation-41.258°
Doppler factor1
Orbital elements
Apogee511.969 km
Perigee495.299 km
Semi-major axis6,881.771 km
Eccentricity0.0012112
Inclination97.4853°
RAAN24.3863°
Arg. of periapsis331.3811°
True anomaly28.74249°
Mean anomaly28.6758°
Eccentric anomaly28.70914°
Mean motion3.80183 °/min
BSTAR0.0013008
Period94.69 mins
No data available

VSP ROSE Visibility forecast

Observer location: 39.9160978°, -105.1181434

VSP ROSE is not visible in the next 10 days
Span
Click to sort rows by Start time (UTC) header in descending order
Start Az.
Max El. time (UTC)
Max El. Az.
Max El.
End time (UTC)
End Az.